Weather History for Kendall, FL

Change the Weather History Date:

Tuesday, February 19, 2013

  Actual Average Record
Temperature  
Mean Temperature 68 °F -  
Max Temperature 78 °F 79 °F 87 °F (2012)
Min Temperature 57 °F 60 °F 33 °F (1998)
Cooling Degree Days 2    
Growing Degree Days 18 (Base 50)    
Moisture  
Dew Point 61 °F    
Average Humidity 72    
Maximum Humidity 93    
Minimum Humidity 57    
Precipitation  
Precipitation 0.00 in - - ()
Sea Level Pressure  
Sea Level Pressure 30.16 in    
Wind  
Wind Speed 8 mph (SE)    
Max Wind Speed 15 mph    
Max Gust Speed 25 mph    
Visibility 10 miles    
Events Rain    
Averages and records for this station are not official NWS values.
T = Trace of Precipitation, MM = Missing Value Source: NWS Daily Summary

Daily Weather History Graph

Daily Weather History Graph

Search for Another Location

Airport:

Trip Planner

Search our weather history database for the weather conditions in past years. The results will help you decide how hot, cold, wet, or windy it might be!

Date:

Astronomy

Feb. 19, 2013 Rise Set
Actual Time 6:53 AM EST 6:17 PM EST
Civil Twilight 6:30 AM EST 6:41 PM EST
Nautical Twilight 6:03 AM EST 7:08 PM EST
Astronomical Twilight 5:36 AM EST 7:34 PM EST
Moon 1:05 PM EST 2:06 AM EST
Length of Visible Light 12h 11m
Length of Day
11h 24m
Waxing Gibbous, 67% of the Moon is Illuminated
Feb 19
Waxing Gibbous
Feb 25
Full
Mar 4
Last Quarter
Mar 11
New
Mar 19
First Quarter

Hourly Weather History & Observations

Time (EST) Temp. Dew Point Humidity Pressure Visibility Wind Dir Wind Speed Gust Speed Precip Events Conditions
12:53 AM 64.9 °F 54.0 °F 68% 30.20 in 10.0 mi ESE 6.9 mph - N/A   Clear
1:53 AM 64.0 °F 54.0 °F 70% 30.19 in 10.0 mi SE 5.8 mph - N/A   Clear
2:53 AM 64.0 °F 54.0 °F 70% 30.17 in 10.0 mi SE 6.9 mph - N/A   Clear
3:53 AM 63.0 °F 55.0 °F 75% 30.16 in 10.0 mi ESE 3.5 mph - N/A   Clear
4:53 AM 57.9 °F 54.0 °F 87% 30.16 in 10.0 mi East 3.5 mph - N/A   Clear
5:53 AM 59.0 °F 55.9 °F 90% 30.16 in 10.0 mi East 4.6 mph - N/A   Clear
6:53 AM 63.0 °F 57.9 °F 84% 30.17 in 10.0 mi ESE 5.8 mph - N/A   Clear
7:53 AM 66.9 °F 62.1 °F 84% 30.19 in 10.0 mi ESE 5.8 mph - N/A   Clear
8:53 AM 73.0 °F 61.0 °F 66% 30.19 in 10.0 mi SE 12.7 mph - N/A   Clear
9:53 AM 75.9 °F 61.0 °F 60% 30.20 in 10.0 mi SSE 12.7 mph - N/A   Clear
10:29 AM 75.2 °F 60.8 °F 61% 30.20 in 10.0 mi SSE 13.8 mph 25.3 mph N/A   Mostly Cloudy
10:46 AM 75.2 °F 60.8 °F 61% 30.20 in 10.0 mi SE 11.5 mph 19.6 mph N/A   Overcast
10:53 AM 75.9 °F 61.0 °F 60% 30.19 in 10.0 mi SE 11.5 mph 19.6 mph N/A   Overcast
11:53 AM 75.9 °F 62.1 °F 62% 30.19 in 10.0 mi SE 13.8 mph - N/A   Overcast
12:08 PM 78.8 °F 62.6 °F 57% 30.18 in 10.0 mi SE 13.8 mph - N/A   Overcast
12:27 PM 77.0 °F 62.6 °F 61% 30.17 in 10.0 mi SE 15.0 mph - N/A   Overcast
1:28 PM 75.2 °F 62.6 °F 65% 30.15 in 10.0 mi SE 12.7 mph - N/A   Overcast
1:35 PM 75.2 °F 62.6 °F 65% 30.15 in 10.0 mi SE 13.8 mph 20.7 mph N/A   Overcast
1:53 PM 75.0 °F 64.0 °F 69% 30.15 in 10.0 mi SE 13.8 mph - 0.00 in Rain Light Rain
2:53 PM 78.1 °F 64.0 °F 62% 30.13 in 10.0 mi SSE 8.1 mph - 0.00 in   Scattered Clouds
3:53 PM 75.9 °F 64.0 °F 67% 30.12 in 10.0 mi SSE 10.4 mph - N/A   Overcast
4:53 PM 75.9 °F 64.9 °F 69% 30.11 in 10.0 mi SE 10.4 mph - N/A   Scattered Clouds
5:53 PM 73.9 °F 64.9 °F 73% 30.11 in 10.0 mi SE 10.4 mph - N/A   Clear
7:53 PM 71.1 °F 64.9 °F 81% 30.12 in 10.0 mi SSE 3.5 mph - N/A   Partly Cloudy
8:53 PM 70.0 °F 64.9 °F 84% 30.14 in 10.0 mi Calm Calm - N/A   Overcast
9:53 PM 68.0 °F 64.0 °F 87% 30.14 in 10.0 mi Calm Calm - N/A   Scattered Clouds
10:53 PM 69.1 °F 66.0 °F 90% 30.12 in 10.0 mi Calm Calm - N/A   Mostly Cloudy
11:53 PM 64.9 °F 63.0 °F 93% 30.11 in 10.0 mi Calm Calm - N/A   Partly Cloudy